Temp
16 15 14 15 15 15 15 15 15 15 15 15 15 16 16 16 16 16 17 17 17 17 17 17 17 17 17 17 17 17 17 17 17 17 17 17 17 17 17 17 17 17
15 14 14 15 15 15 15 15 15 15 15 15 14 15 16 16 15 16 17 17 17 17 17 17 17 16 16 16 17 17 17 17 17 17 17 17 17 17 17 17 17 17
15 14 14 15 15 15 15 15 15 15 16 16 15 15 17 17 16 16 16 16 17 17 17 17 17 17 17 17 17 17 17 17 17 17 17 16 16 17 17 17 17 17
16 14 14 15 15 15 15 15 15 15 16 16 15 16 17 17 17 17 17 16 17 17 16 16 17 17 17 17 17 17 17 18 17 17 17 16 16 17 17 17 17 17
15 14 15 15 15 15 15 15 15 15 16 16 16 16 17 17 17 17 17 17 17 17 17 16 16 17 17 17 17 17 17 17 17 17 16 16 16 17 17 17 17 17
14 14 15 15 16 15 15 15 15 15 16 16 16 16 17 17 17 17 18 17 17 17 17 16 17 17 17 17 17 17 17 17 17 17 16 17 17 17 17 17 17 17
14 14 15 15 15 15 15 16 16 16 16 17 17 17 17 17 17 17 18 17 16 16 17 17 17 17 16 16 17 17 17 17 17 17 17 17 17 17 17 17 17 17
14 14 15 15 15 15 15 16 16 16 16 17 17 17 17 17 17 17 17 16 16 17 17 17 17 17 16 16 17 17 17 17 17 17 17 17 16 17 17 17 17 17
14 14 15 15 15 15 15 15 16 16 16 17 17 17 18 18 17 17 17 16 15 17 17 17 17 17 17 17 17 17 17 17 17 17 17 16 16 16 17 17 17 17
14 14 14 15 14 15 15 15 16 16 16 16 17 17 17 17 17 17 16 16 16 17 17 17 17 17 17 17 17 17 17 17 17 17 17 17 16 16 16 16 16 17
14 14 14 14 14 14 15 15 15 16 16 16 16 16 16 16 16 16 16 16 17 17 17 17 17 17 17 17 17 17 17 17 17 17 17 17 17 17 16 16 16 17
14 14 14 14 14 14 14 14 14 14 15 15 16 16 15 17 16 15 15 17 17 17 17 17 17 17 17 17 17 17 17 17 17 17 17 17 17 17 16 16 17 17
14 14 14 14 14 14 14 14 14 14 14 15 16 15 14 15 16 15 15 16 17 17 17 17 17 17 17 17 17 17 17 17 17 17 17 17 17 17 17 17 17 17
13 14 14 14 14 14 14 14 15 15 14 15 16 15 15 14 15 16 16 16 16 17 17 17 17 17 17 17 17 17 17 17 17 17 17 17 17 17 17 17 17 17
12 13 13 14 14 14 14 14 15 15 15 15 15 16 16 15 15 16 17 16 16 17 17 17 17 17 17 17 17 17 17 17 17 17 17 17 17 17 17 17 17 17
11 12 13 13 14 14 14 14 14 15 15 15 15 15 16 16 15 16 16 16 17 17 17 17 17 17 17 17 17 17 17 17 17 17 17 17 17 17 17 17 17 17
10 10 11 13 14 14 14 14 15 15 15 15 15 15 16 16 16 16 16 16 17 17 17 17 17 17 17 17 17 17 17 17 17 17 17 17 17 17 17 17 17 17
9 10 10 12 13 14 14 14 15 15 15 15 16 15 15 15 16 16 15 16 17 17 17 17 17 17 17 17 17 17 17 17 17 17 17 17 17 17 17 18 17 17
9 10 10 11 12 13 14 14 14 15 15 15 15 14 14 14 15 15 15 16 16 16 16 16 16 17 17 17 17 17 17 17 17 17 17 17 17 17 17 17 17 17
8 9 10 10 11 13 13 13 14 15 14 14 14 14 13 14 14 15 15 15 16 16 16 16 16 16 17 17 17 17 17 17 17 18 17 17 18 17 17 17 16 17
7 8 9 9 10 12 12 13 14 14 13 13 13 13 13 13 14 14 15 15 15 15 15 15 16 16 16 17 17 17 17 17 18 17 17 17 17 16 16 15 15 16
6 7 8 9 8 9 11 13 13 13 12 12 12 12 11 12 12 13 14 14 14 14 15 15 15 16 16 17 17 17 17 17 17 17 17 16 16 15 14 14 14 15
6 7 8 8 8 8 8 10 11 12 12 12 11 10 10 10 11 11 13 13 13 14 14 15 15 15 15 16 17 17 17 17 17 16 16 15 14 14 14 14 14 14
7 6 7 8 8 7 6 7 9 10 11 11 10 10 9 9 9 10 11 12 13 13 14 14 14 14 15 16 16 16 17 17 16 16 14 14 13 13 13 13 13 13
7 7 7 7 8 8 7 6 6 7 8 9 9 9 8 8 8 9 10 11 11 12 13 13 13 13 14 15 15 15 16 16 16 15 14 12 12 12 12 13 13 13
8 8 7 7 7 8 7 6 5 5 5 6 7 7 8 7 7 8 9 9 10 11 11 11 12 11 12 13 14 14 15 15 15 15 13 12 12 12 12 12 12 12
Height
786 787 787 787 787 787 788 788 789 790 792 793 795 798 800 802 804 805 806 806 807 809 811 812 813 815 816 817 819 821 822 824 826 828 830 831 832 834 835 837 838 840
786 786 787 786 786 786 787 787 788 789 790 791 794 797 799 800 803 804 804 804 805 807 809 810 812 814 816 816 818 819 820 822 825 827 829 830 831 832 833 835 837 838
783 784 784 784 784 785 786 786 787 787 788 789 792 795 796 798 800 802 804 804 804 805 807 809 811 813 814 816 817 818 819 821 823 825 828 829 830 830 832 834 836 837
776 779 780 781 781 782 784 785 785 785 786 788 790 792 794 795 797 799 802 803 803 803 805 808 810 811 813 815 816 817 818 820 822 824 826 828 829 829 831 833 834 836
774 777 778 778 779 780 782 783 783 784 785 787 789 791 792 793 795 797 799 800 801 802 804 806 808 809 811 813 815 816 818 820 822 823 824 826 827 828 830 831 833 834
775 776 776 776 776 778 779 780 782 783 784 785 788 790 791 791 793 796 796 797 799 801 802 804 806 807 809 812 814 815 816 818 820 821 822 824 825 827 828 830 831 833
775 776 775 775 775 775 777 778 780 782 783 785 786 788 790 790 791 794 795 797 799 801 802 803 804 805 808 811 812 813 815 817 818 819 821 822 824 825 827 828 830 831
774 775 775 775 775 775 775 776 778 780 782 784 785 786 788 789 790 792 794 797 799 800 802 803 804 806 808 809 811 812 813 815 817 818 819 821 822 824 825 827 828 830
773 774 773 774 774 775 775 776 777 779 780 782 783 784 785 787 789 790 793 797 798 799 801 803 804 806 807 808 809 811 812 814 815 816 818 819 821 822 824 825 827 828
773 773 772 772 772 773 775 776 777 778 779 780 781 782 783 785 788 790 793 796 797 798 800 802 803 805 806 807 808 810 811 812 813 815 816 818 819 821 822 824 825 827
772 772 771 771 772 773 775 776 777 778 778 780 781 781 783 785 788 790 792 794 796 797 799 800 802 803 805 806 807 809 810 811 812 813 814 816 817 819 821 822 824 825
770 770 770 771 772 774 776 777 778 779 779 780 781 781 783 784 787 790 792 792 794 796 798 799 801 802 803 805 806 807 809 810 811 812 813 814 816 817 819 821 822 824
769 769 769 770 772 773 774 774 776 780 781 781 780 782 783 783 785 789 791 792 793 795 797 798 800 801 802 804 805 806 808 809 810 811 812 813 815 816 818 820 821 823
768 768 768 769 770 771 771 771 772 775 780 781 781 782 783 783 785 787 789 792 794 794 795 797 798 800 801 802 804 805 807 808 809 810 812 813 814 816 817 819 820 822
768 767 767 768 768 768 769 770 770 772 776 780 781 782 782 784 786 786 787 790 793 793 795 796 797 799 800 801 803 804 806 807 808 809 811 812 813 815 817 818 819 820
767 766 766 766 766 766 766 767 769 770 773 777 780 781 782 783 785 785 786 789 791 792 793 794 796 798 799 800 802 803 805 806 807 808 810 811 812 814 815 817 818 819
765 764 765 765 764 764 765 766 767 768 770 773 777 780 781 782 783 784 785 788 791 792 793 793 795 796 798 799 801 802 804 805 806 807 808 810 811 812 814 815 816 817
764 763 763 763 762 762 762 764 765 766 768 771 774 777 780 781 781 782 785 788 790 791 792 793 794 795 797 798 800 802 803 804 805 806 807 809 810 811 812 813 814 815
764 761 760 760 760 760 760 762 763 764 766 768 771 775 779 779 779 781 785 787 789 790 791 792 793 794 795 797 799 801 803 804 805 806 807 808 809 810 811 812 813 814
765 762 760 759 759 758 759 760 761 762 764 767 769 773 777 778 778 781 784 786 788 789 791 791 792 793 794 796 798 800 802 803 804 805 806 807 808 808 809 811 812 814
769 765 761 758 758 757 759 759 760 761 764 766 769 772 775 777 777 779 783 785 787 789 790 791 792 793 794 795 797 799 801 802 803 804 805 806 807 808 809 810 812 813
772 768 764 761 759 758 760 760 759 760 763 765 768 772 776 777 778 779 781 784 787 788 789 790 792 793 794 795 796 798 800 801 802 803 804 805 807 808 809 811 812 813
776 773 768 764 762 761 763 762 759 758 761 765 768 771 775 778 779 780 781 784 786 787 788 789 791 793 794 794 795 797 798 800 801 803 804 805 807 809 810 811 813 814
781 778 773 769 766 765 766 767 763 760 761 765 768 771 774 778 781 781 782 784 786 787 788 789 790 792 794 794 796 797 798 799 800 802 804 806 808 809 811 812 813 815
786 783 779 774 771 769 771 774 772 767 765 766 769 772 774 778 781 782 782 784 786 786 788 789 790 792 793 795 796 797 798 799 799 801 804 806 808 810 812 814 815 816
791 788 785 781 777 774 775 780 782 778 773 771 772 774 775 779 783 782 782 785 786 786 788 789 790 793 795 796 796 797 798 799 800 801 804 807 809 810 812 814 816 817
Wind_Speed
28 26 26 26 25 25 25 24 22 23 24 26 25 25 24 23 22 23 22 20 19 20 21 22 21 21 23 23 22 23 24 24 24 24 24 25 25 25 25 25 25 23
26 26 26 27 25 24 23 22 21 21 24 26 22 21 22 20 17 19 22 21 20 20 22 22 22 22 23 23 23 24 24 24 24 24 24 25 24 24 25 25 25 24
28 27 28 28 26 25 22 20 20 20 23 25 23 22 23 21 17 17 20 21 20 21 22 22 22 23 24 23 23 23 23 23 23 24 25 25 25 23 24 25 25 24
32 29 28 29 28 26 24 22 21 21 23 24 24 23 25 22 17 17 19 20 21 21 22 22 22 22 23 24 24 22 22 23 24 25 24 24 24 23 23 24 23 22
27 27 28 28 27 25 25 24 24 24 25 26 26 24 24 21 18 18 19 20 21 21 22 23 23 22 22 23 24 23 23 24 25 25 24 24 23 23 23 23 22 22
20 24 27 28 27 25 26 26 25 26 27 28 28 26 24 22 19 19 21 20 21 21 22 23 23 22 22 23 24 24 24 24 24 24 24 24 23 22 22 22 22 21
20 23 26 28 28 26 26 25 25 26 28 28 27 26 25 23 20 21 22 23 25 24 23 24 23 22 25 26 26 25 24 23 23 23 23 23 22 22 21 20 21 20
19 22 25 27 26 27 26 25 25 25 26 27 27 25 25 24 23 23 24 26 28 26 25 25 24 24 27 27 25 24 24 23 23 23 22 22 22 22 21 20 19 20
15 17 23 27 26 27 27 25 25 25 25 26 26 26 25 24 25 25 25 27 28 26 24 25 25 24 25 25 24 24 24 23 22 22 22 22 23 22 22 20 19 20
15 15 18 25 27 26 27 26 25 25 26 26 27 27 26 24 24 24 25 27 28 25 24 24 23 23 22 22 22 23 23 22 21 21 21 21 22 22 22 21 21 22
14 15 14 19 24 24 24 25 25 26 27 27 27 26 26 25 23 25 27 28 27 25 25 24 22 22 21 20 20 20 20 21 20 20 20 20 20 20 21 21 22 22
11 11 11 14 18 20 22 23 22 23 24 26 26 25 26 26 25 26 28 28 27 26 24 23 22 22 21 20 19 18 18 19 19 19 19 18 18 18 20 21 21 21
10 10 10 12 15 18 21 23 22 20 21 25 26 24 25 26 26 27 26 25 25 25 24 23 23 23 22 20 19 18 17 18 18 18 18 18 18 18 19 20 20 20
8 10 12 12 15 17 19 21 23 22 22 24 25 24 23 24 26 27 25 23 24 24 23 24 24 23 22 21 19 18 17 17 17 17 18 19 19 19 19 19 18 19
10 11 12 12 15 17 18 20 24 24 22 23 24 24 23 22 24 25 23 22 25 25 24 24 25 24 23 21 21 19 18 17 17 17 17 18 19 19 19 18 17 18
17 14 12 13 15 16 18 21 24 24 23 24 25 24 23 24 25 24 21 22 25 25 25 25 25 25 23 22 21 20 19 18 17 17 17 17 18 19 18 18 17 17
22 18 15 12 14 17 17 21 24 25 24 25 25 23 23 25 26 23 20 23 26 26 25 26 25 25 23 21 20 20 20 19 17 17 17 17 17 18 17 16 17 17
26 21 17 13 12 17 20 22 25 26 26 27 26 24 25 26 24 22 22 25 26 26 25 25 25 25 23 22 20 19 19 18 17 16 16 16 16 16 16 16 16 16
28 22 17 13 11 17 21 23 26 28 28 28 27 26 26 25 23 22 25 26 25 25 23 23 24 24 24 22 20 19 18 17 16 16 16 16 16 17 17 17 16 15
28 23 18 14 10 13 18 23 28 31 29 26 26 27 25 24 25 25 26 25 25 24 23 21 21 21 22 22 20 18 17 17 16 16 17 16 15 15 16 16 16 15
30 26 22 18 13 7 14 25 28 29 28 26 26 27 26 26 28 28 27 26 25 25 24 22 21 20 20 21 20 19 18 18 18 18 17 15 13 12 13 15 16 15
31 28 27 25 21 11 7 24 29 28 27 27 27 25 25 26 27 29 29 27 25 25 25 24 22 20 20 20 21 21 21 20 19 19 18 16 14 13 14 15 14 14
32 29 28 29 28 24 11 9 25 30 29 28 29 28 27 27 27 28 28 27 25 24 24 25 23 20 19 20 20 22 22 22 21 19 19 18 17 16 16 16 15 13
34 32 29 30 32 32 27 13 10 26 30 30 31 31 30 28 27 28 27 26 25 24 23 23 23 21 19 19 18 19 21 22 22 21 20 20 19 19 18 17 16 15
34 34 31 31 33 34 32 26 13 14 26 31 32 33 31 29 28 30 30 27 26 26 24 23 23 21 20 20 19 19 20 21 23 23 23 23 22 21 20 18 17 17
34 35 34 32 32 33 33 30 24 16 19 26 30 32 33 31 28 30 31 29 28 28 27 25 23 20 19 20 21 22 22 23 23 25 26 25 24 22 21 19 17 17
Wind_Direction
227 227 226 227 227 224 222 220 214 210 208 206 208 211 212 214 211 207 210 210 211 213 209 206 207 208 210 210 209 211 210 212 214 214 216 218 220 220 219 217 215 216
231 230 225 223 221 218 218 221 218 213 212 208 208 214 216 213 210 214 218 211 206 211 209 206 207 208 209 208 209 210 210 212 217 217 217 218 219 220 222 220 217 216
235 230 225 223 221 220 218 217 216 215 215 209 206 217 222 217 213 220 226 219 210 211 213 212 210 209 210 211 211 213 212 214 219 219 219 219 219 220 221 220 218 217
231 227 224 222 224 223 217 211 209 210 213 207 206 218 223 218 210 210 222 229 221 213 213 216 214 210 213 215 213 214 214 215 219 219 219 220 220 219 220 219 217 217
228 225 223 223 224 223 217 212 209 207 208 206 206 214 219 214 204 201 212 225 223 214 210 214 213 208 211 214 212 212 212 214 219 218 216 217 218 219 220 218 216 215
235 228 225 225 224 221 218 217 215 211 208 207 207 210 213 208 201 201 206 212 216 214 211 214 213 207 209 212 211 211 210 212 216 216 214 216 217 219 220 218 215 215
247 238 231 228 225 222 220 219 219 216 211 209 208 209 210 206 200 203 206 209 213 212 211 216 216 208 209 211 210 210 210 212 213 212 212 214 214 215 216 216 216 216
257 248 239 233 227 223 221 220 219 216 211 210 210 210 210 208 203 203 207 211 212 209 208 213 213 208 207 208 208 208 208 210 211 210 211 211 211 212 212 213 217 218
269 260 242 232 227 222 220 220 217 213 211 212 213 212 210 208 207 204 205 211 211 205 204 207 206 205 206 207 208 208 208 210 211 211 212 211 211 212 212 213 217 222
283 282 251 228 221 218 218 218 216 215 215 212 213 213 209 205 207 206 205 209 208 204 204 205 203 202 204 205 207 209 210 210 211 212 214 215 216 215 215 216 218 222
286 287 271 236 219 213 215 218 216 213 211 210 212 213 208 204 205 207 206 207 207 205 205 205 204 202 202 202 203 205 209 211 212 214 216 219 219 217 217 219 220 222
298 287 277 247 225 215 216 220 221 216 210 209 212 214 210 204 205 209 207 205 205 205 206 206 206 206 205 203 201 202 205 209 211 214 216 217 217 217 219 220 221 223
312 295 274 245 227 219 217 217 219 220 220 217 216 217 212 203 204 210 209 206 206 205 206 208 208 209 209 207 205 205 204 206 210 214 215 216 217 217 220 223 224 224
299 283 274 250 231 225 220 214 210 211 222 226 220 217 214 204 202 206 205 208 212 209 207 207 206 208 209 208 207 207 206 208 211 213 214 215 217 217 219 224 228 228
303 279 270 253 235 225 218 215 209 205 215 226 220 214 213 209 206 202 198 205 211 209 206 207 206 207 209 208 208 206 207 209 211 215 217 217 217 217 220 225 229 231
328 304 282 255 234 223 217 214 209 204 210 218 215 210 209 208 206 201 198 205 209 208 208 209 208 208 209 209 210 208 207 208 212 217 219 219 220 220 222 226 230 234
343 327 307 272 236 223 218 212 207 206 208 209 206 203 203 204 205 202 203 210 210 210 212 210 207 207 208 209 210 210 210 211 214 216 214 215 219 219 220 225 229 232
353 340 325 301 253 224 212 206 207 205 203 203 203 202 204 204 204 203 205 209 210 210 211 209 207 207 207 207 207 207 208 210 210 208 206 208 212 214 217 221 224 227
359 350 337 323 278 231 210 201 203 201 197 199 200 200 202 201 196 197 201 202 203 205 203 201 202 203 203 205 205 203 204 205 205 204 203 205 209 212 215 216 215 216
4 0 352 344 309 250 215 197 197 196 192 191 192 193 197 195 188 189 191 190 190 191 187 185 187 190 193 197 198 197 198 197 195 194 193 194 200 207 209 206 205 203
8 10 9 5 350 295 205 189 188 187 182 180 185 190 191 186 182 181 179 176 175 175 172 169 169 171 177 185 187 185 185 185 182 179 177 177 179 183 186 186 187 189
11 15 21 22 17 13 173 178 176 174 173 174 176 178 175 171 169 167 165 163 162 162 161 157 155 156 163 171 176 176 177 178 175 170 166 163 158 155 157 160 164 171
18 19 26 34 32 26 27 165 170 166 168 171 166 160 157 156 154 151 150 152 151 151 151 149 146 147 154 161 168 175 177 175 171 165 158 152 146 142 144 144 144 150
26 25 29 39 43 35 24 21 146 156 159 163 159 151 146 144 140 137 137 138 139 140 141 141 140 142 149 154 159 169 175 172 167 160 150 143 140 136 137 138 136 136
34 33 34 41 48 46 35 23 35 121 142 148 148 143 137 132 128 127 124 122 122 126 128 130 131 135 145 151 152 158 164 164 162 154 143 137 136 135 133 134 134 134
39 40 40 42 50 55 50 35 28 56 107 125 130 130 127 121 115 115 115 112 111 113 113 115 118 123 135 146 150 151 152 154 156 151 142 136 134 133 131 130 132 133